• en France
  • Liste des pays
  • À 7 jours
  • Température de l'eau
  • Carte satellitaire
  • Carte météo
  • Widgets météo
  • user-avatar
    Se connecter

    Météo par heure à Pasto

    Ce jour, 11 Décembre, Lundi

    Heure Température Précipitation Vent Pression Humidité
    00:00 +10°C° 0,5 mm 1 m/s 548 mmHg 93%
    01:00 +10°C° 0,5 mm 1 m/s 548 mmHg 93%
    02:00 +10°C° 0,2 mm 1 m/s 548 mmHg 93%
    03:00 +10°C° 0,2 mm 1 m/s 548 mmHg 92%
    04:00 +10°C° 0,2 mm 1 m/s 547 mmHg 92%
    05:00 +10°C° 0,1 mm 1 m/s 548 mmHg 90%
    06:00 +11°C° 0,1 mm 1 m/s 548 mmHg 88%
    07:00 +11°C° 0,1 mm 1 m/s 549 mmHg 86%
    08:00 +13°C° 0 mm 1 m/s 550 mmHg 77%
    09:00 +15°C° 0 mm 1 m/s 551 mmHg 69%
    10:00 +18°C° 0 mm 1 m/s 552 mmHg 60%
    11:00 +17°C° 0,5 mm 2 m/s 551 mmHg 65%
    12:00 +16°C° 0,5 mm 2 m/s 551 mmHg 70%
    13:00 +16°C° 0,5 mm 2 m/s 550 mmHg 74%
    14:00 +15°C° 0,9 mm 2 m/s 549 mmHg 78%
    15:00 +15°C° 0,9 mm 2 m/s 548 mmHg 81%
    16:00 +14°C° 0,9 mm 2 m/s 548 mmHg 84%
    17:00 +13°C° 0,9 mm 2 m/s 548 mmHg 88%
    18:00 +12°C° 0,9 mm 1 m/s 547 mmHg 91%
    19:00 +11°C° 0,9 mm 1 m/s 547 mmHg 95%
    20:00 +11°C° 0,4 mm 1 m/s 548 mmHg 95%
    21:00 +11°C° 0,4 mm 1 m/s 548 mmHg 94%
    22:00 +10°C° 0,4 mm 1 m/s 548 mmHg 94%
    23:00 +10°C° 0,1 mm 1 m/s 548 mmHg 94%

    Demain, 12 Décembre, Mardi

    Heure Température Précipitation Vent Pression Humidité
    00:00 +10°C° 0,1 mm 1 m/s 548 mmHg 93%
    01:00 +10°C° 0,1 mm 1 m/s 548 mmHg 93%
    02:00 +10°C° 0,1 mm 1 m/s 548 mmHg 92%
    03:00 +10°C° 0,1 mm 1 m/s 548 mmHg 91%
    04:00 +10°C° 0,1 mm 1 m/s 547 mmHg 90%
    05:00 +10°C° 0,1 mm 1 m/s 548 mmHg 89%
    06:00 +10°C° 0,1 mm 1 m/s 548 mmHg 87%
    07:00 +11°C° 0,1 mm 1 m/s 548 mmHg 86%
    08:00 +12°C° 0 mm 1 m/s 550 mmHg 79%
    09:00 +14°C° 0 mm 1 m/s 551 mmHg 72%
    10:00 +16°C° 0 mm 1 m/s 552 mmHg 64%
    11:00 +16°C° 0,4 mm 2 m/s 551 mmHg 67%
    12:00 +16°C° 0,4 mm 2 m/s 550 mmHg 69%
    13:00 +16°C° 0,4 mm 2 m/s 550 mmHg 72%
    14:00 +15°C° 0,7 mm 2 m/s 549 mmHg 75%
    15:00 +14°C° 0,7 mm 2 m/s 549 mmHg 78%
    16:00 +14°C° 0,7 mm 2 m/s 548 mmHg 81%
    17:00 +13°C° 0,9 mm 1 m/s 548 mmHg 86%
    18:00 +12°C° 0,9 mm 1 m/s 548 mmHg 90%
    19:00 +11°C° 0,9 mm 1 m/s 548 mmHg 95%
    20:00 +10°C° 0,7 mm 1 m/s 548 mmHg 95%
    21:00 +10°C° 0,7 mm 1 m/s 548 mmHg 95%
    22:00 +10°C° 0,7 mm 1 m/s 549 mmHg 94%
    23:00 +10°C° 0,1 mm 1 m/s 548 mmHg 94%

    Après-demain, 13 Décembre, Mercredi

    Heure Température Précipitation Vent Pression Humidité
    00:00 +9°C° 0,1 mm 1 m/s 548 mmHg 94%
    01:00 +9°C° 0,1 mm 1 m/s 548 mmHg 93%
    02:00 +9°C° 0,1 mm 1 m/s 548 mmHg 92%
    03:00 +9°C° 0,1 mm 1 m/s 547 mmHg 91%
    04:00 +9°C° 0,1 mm 1 m/s 547 mmHg 89%
    05:00 +10°C° 0 mm 1 m/s 548 mmHg 87%
    06:00 +10°C° 0 mm 1 m/s 548 mmHg 85%
    07:00 +10°C° 0 mm 1 m/s 549 mmHg 83%
    08:00 +12°C° 0 mm 1 m/s 550 mmHg 72%
    09:00 +15°C° 0 mm 1 m/s 551 mmHg 61%
    10:00 +17°C° 0 mm 2 m/s 553 mmHg 50%
    11:00 +17°C° 0,1 mm 2 m/s 552 mmHg 51%
    12:00 +17°C° 0,1 mm 2 m/s 552 mmHg 53%
    13:00 +18°C° 0,1 mm 3 m/s 552 mmHg 54%
    14:00 +17°C° 0,3 mm 2 m/s 551 mmHg 57%
    15:00 +16°C° 0,3 mm 2 m/s 550 mmHg 60%
    16:00 +16°C° 0,3 mm 2 m/s 549 mmHg 64%
    17:00 +14°C° 0,2 mm 2 m/s 549 mmHg 72%
    18:00 +12°C° 0,2 mm 1 m/s 548 mmHg 81%
    19:00 +9°C° 0,2 mm 0 m/s 547 mmHg 90%
    20:00 +10°C° 0,1 mm 1 m/s 548 mmHg 88%
    21:00 +10°C° 0,1 mm 1 m/s 548 mmHg 87%
    22:00 +9°C° 0,1 mm 1 m/s 548 mmHg 85%
    23:00 +10°C° 0 mm 1 m/s 548 mmHg 86%

    14 Décembre, Jeudi

    Heure Température Précipitation Vent Pression Humidité
    00:00 +10°C° 0 mm 1 m/s 548 mmHg 86%
    01:00 +10°C° 0 mm 1 m/s 548 mmHg 86%
    02:00 +10°C° 0 mm 1 m/s 548 mmHg 87%
    03:00 +10°C° 0 mm 1 m/s 547 mmHg 88%
    04:00 +9°C° 0 mm 1 m/s 547 mmHg 90%
    05:00 +10°C° 0 mm 1 m/s 548 mmHg 88%
    06:00 +10°C° 0 mm 1 m/s 548 mmHg 86%
    07:00 +11°C° 0 mm 1 m/s 549 mmHg 85%
    08:00 +12°C° 0 mm 1 m/s 550 mmHg 79%
    09:00 +14°C° 0 mm 2 m/s 551 mmHg 73%
    10:00 +15°C° 0 mm 2 m/s 551 mmHg 68%
    11:00 +16°C° 0,1 mm 2 m/s 551 mmHg 66%
    12:00 +16°C° 0,1 mm 2 m/s 551 mmHg 65%
    13:00 +17°C° 0,1 mm 2 m/s 551 mmHg 63%
    14:00 +16°C° 0,2 mm 2 m/s 550 mmHg 67%
    15:00 +16°C° 0,2 mm 2 m/s 549 mmHg 71%
    16:00 +15°C° 0,2 mm 2 m/s 548 mmHg 76%
    17:00 +14°C° 0,2 mm 1 m/s 548 mmHg 82%
    18:00 +12°C° 0,2 mm 1 m/s 548 mmHg 89%
    19:00 +11°C° 0,2 mm 1 m/s 548 mmHg 95%
    20:00 +11°C° 0,2 mm 1 m/s 548 mmHg 95%
    21:00 +11°C° 0,2 mm 1 m/s 549 mmHg 94%
    22:00 +11°C° 0,2 mm 1 m/s 549 mmHg 94%
    23:00 +10°C° 0,1 mm 1 m/s 548 mmHg 93%

    15 Décembre, Vendredi

    Heure Température Précipitation Vent Pression Humidité
    00:00 +10°C° 0,1 mm 1 m/s 548 mmHg 92%
    01:00 +9°C° 0,1 mm 1 m/s 547 mmHg 91%
    02:00 +9°C° 0 mm 1 m/s 547 mmHg 90%
    03:00 +9°C° 0 mm 1 m/s 547 mmHg 89%
    04:00 +9°C° 0 mm 1 m/s 547 mmHg 88%
    05:00 +9°C° 0 mm 1 m/s 547 mmHg 86%
    06:00 +10°C° 0 mm 1 m/s 548 mmHg 85%
    07:00 +10°C° 0 mm 1 m/s 549 mmHg 84%
    08:00 +13°C° 0 mm 2 m/s 550 mmHg 73%
    09:00 +15°C° 0 mm 2 m/s 551 mmHg 61%
    10:00 +17°C° 0 mm 3 m/s 552 mmHg 50%
    11:00 +17°C° 0 mm 3 m/s 552 mmHg 47%
    12:00 +18°C° 0 mm 3 m/s 552 mmHg 45%
    13:00 +19°C° 0 mm 3 m/s 552 mmHg 42%
    14:00 +18°C° 0 mm 3 m/s 551 mmHg 46%
    15:00 +17°C° 0 mm 2 m/s 550 mmHg 49%
    16:00 +17°C° 0 mm 2 m/s 549 mmHg 53%
    17:00 +14°C° 0,1 mm 2 m/s 549 mmHg 63%
    18:00 +12°C° 0,1 mm 1 m/s 548 mmHg 73%
    19:00 +10°C° 0,1 mm 1 m/s 547 mmHg 83%
    20:00 +10°C° 0 mm 1 m/s 548 mmHg 81%
    21:00 +10°C° 0 mm 1 m/s 548 mmHg 80%
    22:00 +10°C° 0 mm 1 m/s 548 mmHg 78%
    23:00 +10°C° 0 mm 1 m/s 548 mmHg 77%

    16 Décembre, Samedi

    Heure Température Précipitation Vent Pression Humidité
    00:00 +10°C° 0 mm 1 m/s 548 mmHg 75%
    01:00 +10°C° 0 mm 1 m/s 547 mmHg 74%
    02:00 +9°C° 0,1 mm 1 m/s 547 mmHg 73%
    03:00 +9°C° 0,1 mm 1 m/s 547 mmHg 73%
    04:00 +9°C° 0,1 mm 1 m/s 546 mmHg 73%
    05:00 +9°C° 0,1 mm 1 m/s 547 mmHg 72%
    06:00 +10°C° 0,1 mm 1 m/s 548 mmHg 71%
    07:00 +10°C° 0,1 mm 1 m/s 548 mmHg 70%
    08:00 +12°C° 0 mm 1 m/s 550 mmHg 65%
    09:00 +14°C° 0 mm 2 m/s 551 mmHg 60%
    10:00 +17°C° 0 mm 2 m/s 552 mmHg 54%
    11:00 +17°C° 0 mm 2 m/s 552 mmHg 54%
    12:00 +17°C° 0 mm 2 m/s 551 mmHg 54%
    13:00 +18°C° 0 mm 2 m/s 551 mmHg 54%
    14:00 +17°C° 0,2 mm 2 m/s 550 mmHg 58%
    15:00 +16°C° 0,2 mm 2 m/s 549 mmHg 61%
    16:00 +16°C° 0,2 mm 2 m/s 549 mmHg 65%
    17:00 +14°C° 0,1 mm 2 m/s 548 mmHg 73%
    18:00 +13°C° 0,1 mm 1 m/s 548 mmHg 81%
    19:00 +11°C° 0,1 mm 1 m/s 547 mmHg 89%
    20:00 +11°C° 0,1 mm 1 m/s 547 mmHg 89%
    21:00 +11°C° 0,1 mm 1 m/s 548 mmHg 89%
    22:00 +10°C° 0,1 mm 1 m/s 548 mmHg 88%
    23:00 +10°C° 0 mm 1 m/s 547 mmHg 87%
    Voir plus